一网星座-0314星 (ONEWEB-0314 )

导读

ONEWEB-0314是英国OneWeb公司“一网”星座的宽带低轨互联网卫星,于北京时间2021年8月21日,搭乘俄罗斯“联盟-2.1b”运载火箭,自哈萨克斯坦拜科努尔发射场发射入轨。它单星质量约147千克,配备Ku波段天线,运行于近地轨道,旨在为全球偏远、地面网络不佳区域提供低延迟高速宽带互联网服务,助力OneWeb完成全球卫星互联网星座组网部署。

Basic Information
目录编号:
49100
目录名称:
ONEWEB-0314
国际标识:
2021-075AB
轨道中心:
EARTH
卫星名称:
一网星座-0314星
卫星全名:
一网星座-0314星 (ONEWEB-0314 )
卫星状态:
在轨 (已飞行1756 天)
发射日期:
2021-08-21 UTC
国别 :
英国 (GB)
星等 :
--
Orbit Information
数据来源 国际轨道数据 AOE轨道数据
星历时间 2026-06-12T09:41:31+0800
21小时前
查看轨道信息
2026-06-12T09:00:00+0800
22小时前
查看轨道信息
半长轴 7571.853km 7571.852km
偏心率 0.0002207 0.0002102
轨道倾角 87.914° 87.914°
近地点辐角 92.508° 92.886°
升交点赤经 6.869° 6.875°
平近点角 267.630° 130.556°
近地点 1192.044km 1192.123km
远地点 1195.388km 1195.307km
周期 109.286分钟 109.286分钟
每日圈数 13.176484 13.176488
Detailed Information
平衡模式:
三轴稳定
覆盖范围:
全球
运营商:
一网卫星公司
运营商所在国:
英国
制造商(研发单位):
一网卫星公司
制造商所在国:
英国
使用方式:
暂无
Satellite Introduction
OneWeb卫星网络由648颗重约125公斤的微型卫星组成,运行在1200公里的轨道上。 每颗卫星都能够提供至少每秒8千兆位的吞吐量,以使用其高吞吐量的Ku频段有效载荷为家庭和移动平台提供互联网接入。该卫星仍在工作。
2D Orbit Map
3D Orbit Map
Orbit Altitude Analysis Chart
Orbit Inclination Analysis Chart
Orbit Comprehensive Analysis Chart
View Comprehensive Chart